Location: Antioch Church
(34.9543°N, 88.5145°W)
Time: 10:36:26
(UTC+00:00)

Cosmos 1331 Rocket - Pass Details

Date: 11 December 2019
Orbit: 749 x 779 km, 74.0° (Epoch: 21 January)

Event Time Altitude Azimuth Distance (km) Brightness Sun altitude
Rises 11:34:27 0° 192° (SSW) 3,177 7.3 -15.4°
Reaches altitude 10° 11:36:48 10° 191° (S) 2,257 6.5 -15.0°
Maximum altitude 11:41:54 77° 105° (ESE) 771 4.1 -14.0°
Drops below altitude 10° 11:47:03 10° 20° (NNE) 2,280 6.5 -13.0°
Sets 11:49:26 0° 19° (NNE) 3,212 7.2 -12.5°
